Photometre #46[NE_1.6] Lille AOT

File : 20220928_46.hum

28/09/2022,06:39:11,TEMP=8.4,BA=5.64,STAT.A=3.5,ExtBa=13.02
28/09/2022,06:43:19,TEMP=8.7,BA=5.56,STAT.A=3.5,ExtBa=12.87
28/09/2022,06:48:09,TEMP=9.0,BA=5.56,STAT.A=3.5,ExtBa=12.91
28/09/2022,06:53:55,TEMP=9.2,BA=5.64,STAT.A=3.5,ExtBa=12.93
28/09/2022,07:00:53,TEMP=9.5,BA=5.64,STAT.A=3.5,ExtBa=12.94
28/09/2022,07:09:32,TEMP=9.9,BA=5.64,STAT.A=3.5,ExtBa=13.00
28/09/2022,07:20:31,TEMP=10.6,BA=5.64,STAT.B=3.5,ExtBa=13.06
28/09/2022,07:29:58,TEMP=11.2,BA=5.64,STAT.A=3.5,ExtBa=12.68
28/09/2022,07:31:51,TEMP=11.5,BA=5.52,STAT.A=3.0,ExtBa=12.73
28/09/2022,07:38:32,TEMP=11.5,BA=5.52,STAT.A=3.5,ExtBa=12.89
28/09/2022,07:46:17,TEMP=11.9,BA=5.52,STAT.A=3.5,ExtBa=12.96
28/09/2022,07:55:16,TEMP=12.3,BA=5.64,STAT.C=3.5,ExtBa=13.02
28/09/2022,08:08:57,TEMP=12.9,BA=5.52,STAT.A=3.5,ExtBa=12.64
28/09/2022,08:18:29,TEMP=13.1,BA=5.52,STAT.A=3.5,ExtBa=12.90
28/09/2022,08:34:03,TEMP=13.7,BA=5.64,STAT.A=3.5,ExtBa=13.05
28/09/2022,08:38:45,TEMP=13.8,BA=5.64,STAT.F,ExtBa=13.00
28/09/2022,08:53:43,TEMP=14.3,BA=5.52,STAT.D=3.5,ExtBa=12.70
28/09/2022,09:08:43,TEMP=14.6,BA=5.64,STAT.D=3.5,ExtBa=12.98
28/09/2022,09:23:43,TEMP=14.7,BA=5.64,STAT.D=3.5,ExtBa=13.07
28/09/2022,09:38:45,TEMP=15.0,BA=5.64,STAT.F,ExtBa=13.09
28/09/2022,09:53:44,TEMP=14.9,BA=5.64,STAT.D=3.5,ExtBa=13.13
28/09/2022,10:08:44,TEMP=14.1,BA=5.64,STAT.D=3.5,ExtBa=13.15
28/09/2022,10:23:44,TEMP=15.7,BA=5.64,STAT.D=3.5,ExtBa=13.15
28/09/2022,10:38:45,TEMP=16.0,BA=5.64,STAT.F,ExtBa=13.14
28/09/2022,10:53:44,TEMP=17.0,BA=5.52,STAT.D=3.5,ExtBa=12.74
28/09/2022,11:08:44,TEMP=15.7,BA=5.64,STAT.D=3.5,ExtBa=13.01
28/09/2022,11:23:44,TEMP=14.4,BA=5.64,STAT.D=3.5,ExtBa=13.09
28/09/2022,11:38:46,TEMP=15.0,BA=5.64,STAT.F,ExtBa=13.10
28/09/2022,11:53:44,TEMP=16.3,BA=5.52,STAT.D=3.5,ExtBa=12.75
28/09/2022,12:08:44,TEMP=16.9,BA=5.64,STAT.D=3.5,ExtBa=13.00
28/09/2022,12:23:44,TEMP=15.7,BA=5.64,STAT.D=3.5,ExtBa=13.08
28/09/2022,12:38:45,TEMP=17.4,BA=5.64,STAT.F,ExtBa=13.09
28/09/2022,12:53:44,TEMP=16.8,BA=5.64,STAT.D=3.5,ExtBa=13.14
28/09/2022,13:08:44,TEMP=17.7,BA=5.64,STAT.D=3.5,ExtBa=13.14
28/09/2022,13:23:44,TEMP=17.5,BA=5.64,STAT.D=3.5,ExtBa=13.15
28/09/2022,13:38:45,TEMP=16.3,BA=5.64,STAT.F,ExtBa=13.14
28/09/2022,13:53:43,TEMP=15.3,BA=5.64,STAT.D=3.5,ExtBa=13.17
28/09/2022,14:08:43,TEMP=16.3,BA=5.64,STAT.D=3.5,ExtBa=13.17
28/09/2022,14:23:43,TEMP=16.8,BA=5.64,STAT.D=3.5,ExtBa=13.17
28/09/2022,14:38:45,TEMP=16.5,BA=5.64,STAT.F,ExtBa=13.15
28/09/2022,14:52:25,TEMP=16.9,BA=5.52,STAT.A=3.5,ExtBa=12.72
28/09/2022,14:59:01,TEMP=16.5,BA=5.52,STAT.A=3.5,ExtBa=12.89
28/09/2022,15:11:40,TEMP=16.3,BA=5.64,STAT.A=3.5,ExtBa=13.02
28/09/2022,15:22:14,TEMP=16.6,BA=5.64,STAT.C=3.5,ExtBa=13.06
28/09/2022,15:36:09,TEMP=16.5,BA=5.52,STAT.A=3.5,ExtBa=12.70
28/09/2022,15:38:57,TEMP=16.5,BA=5.52,STAT.A=3.5,ExtBa=12.78
28/09/2022,15:45:42,TEMP=16.1,BA=5.52,STAT.A=3.5,ExtBa=12.90
28/09/2022,15:51:39,TEMP=15.3,BA=5.64,STAT.A=3.5,ExtBa=12.93
28/09/2022,15:56:57,TEMP=15.0,BA=5.64,STAT.B=3.5,ExtBa=12.94
28/09/2022,16:07:56,TEMP=15.3,BA=5.52,STAT.A=3.5,ExtBa=12.78
28/09/2022,16:16:35,TEMP=15.4,BA=5.64,STAT.A=3.5,ExtBa=12.92
28/09/2022,16:23:33,TEMP=15.7,BA=5.64,STAT.A=3.5,ExtBa=12.95
28/09/2022,16:29:19,TEMP=15.2,BA=5.64,STAT.A=3.5,ExtBa=12.95
28/09/2022,16:34:09,TEMP=14.6,BA=5.52,STAT.A=3.5,ExtBa=12.95
28/09/2022,16:38:17,TEMP=14.4,BA=5.52,STAT.A=3.5,ExtBa=12.96